Regional Weather Roundup
Issued by NWS

Home | Current Version | Previous Version | Graphics & Text | Print | Product List | Glossary Off
Versions: 1 2 3 4 5 6 7 8 9 10 11 12 13 14 15 16 17 18 19 20 21 22 23 24 25 26 27 28 29 30 31 32 33 34 35 36 37 38 39 40 41 42 43 44 45 46 47 48 49 50

000
ASUS43 KTOP 310308
RWRKS

WEATHER ROUNDUP FOR KANSAS
NATIONAL WEATHER SERVICE GOODLAND KS
1000 PM CDT TUE AUG 30 2016

NOTE:  "FAIR" INDICATES FEW OR NO CLOUDS BELOW 12,000 FEET WITH NO
SIGNIFICANT WEATHER AND/OR OBSTRUCTIONS TO VISIBILITY.

KSZ001>006-013>018-027>032-041>047-310400-
NORTHWEST KANSAS

CITY           SKY/WX    TMP DP  RH WIND       PRES   REMARKS
GOODLAND       MOCLDY    63  58  83 S5        30.24S
HAYS           MOCLDY    68  61  77 NE7       30.20F
HILL CITY      CLOUDY    70  66  87 SE7       30.21R
RUSSELL        LGT RAIN  69  68  96 N5        30.18S
$$

KSZ061>065-074>080-084>089-310400-
SOUTHWEST KANSAS

CITY           SKY/WX    TMP DP  RH WIND       PRES   REMARKS
DODGE CITY     CLOUDY    68  66  93 NE5       30.20S
ELKHART          N/A     66  60  81 SE8         N/A
GARDEN CITY    MOCLDY    69  66  90 E8        30.21R
GREAT BEND     CLOUDY    70  63  78 NE7       30.17S
LIBERAL        CLOUDY    70  63  78 NW3       30.22S
PRATT          PTCLDY    67  65  90 N6        30.16R
$$

KSZ066>073-081>083-090>101-310400-
SOUTHEAST KANSAS

CITY           SKY/WX    TMP DP  RH WIND       PRES   REMARKS
CHANUTE        CLOUDY    73  69  87 E9        30.10F
COFFEYVILLE    LGT RAIN  74  69  85 N6        30.09R
HUTCHINSON     CLOUDY    71  68  90 CALM      30.14F
MEDICINE LODGE   N/A     73  68  84 NE6       30.12R
NEWTON         LGT RAIN  69  68  96 E6        30.14S
PARSONS        MOCLDY    73  68  84 VRB3      30.09R
WICHITA INTL   CLOUDY    73  67  81 NE7       30.12S
WICHITA JABRA  CLOUDY    69  68  96 NE6       30.13S
WICHITA MCCONL CLOUDY    71  66  83 NE8       30.13S
WINFIELD       CLOUDY    74  70  87 NW8       30.13R
$$

KSZ007>012-019>026-033>040-048>060-102>105-310400-
NORTHEAST KANSAS

CITY           SKY/WX    TMP DP  RH WIND       PRES   REMARKS
CONCORDIA      CLOUDY    71  69  93 CALM      30.17F
EMPORIA        TSTM      70  68  93 W9G20     30.14R FOG
LAWRENCE       CLOUDY    76  72  87 E6        30.12R
MANHATTAN      CLOUDY    73  71  93 CALM      30.13S
MARYSVILLE     CLOUDY    72  72 100 N5        30.16S
OLATHE IND     CLOUDY    72  71  97 N3        30.12F
OLATHE EXE     LGT RAIN  73  70  90 N5        30.11F
SALINA         LGT RAIN  74  71  91 NW5       30.15F
TOPEKA BILLARD CLOUDY    77  72  84 N6        30.11S
TOPEKA FORBES  CLOUDY    78  73  84 N6        30.12R
$$




USA.gov is the U.S. government's official web portal to all federal, state and local government web resources and services.